Location: Namasale
(1.5000°N, 32.6167°E)
Time: 22:39:01
(UTC+00:00)

Transit 2A - Pass Details

Date: 26 April 2021
Orbit: 602 x 957 km, 66.7° (Epoch: 11 May)

Event Time Altitude Azimuth Distance (km) Brightness Sun altitude
Rises 13:20:43 0° 351° (N) 3,057 9.4 35.9°
Reaches altitude 10° 13:23:00 10° 357° (N) 2,193 8.7 35.3°
Maximum altitude 13:27:50 48° 71° (ENE) 994 6.7 34.2°
Drops below altitude 10° 13:33:12 10° 145° (SE) 2,433 8.3 32.9°
Sets 13:35:51 0° 150° (SSE) 3,426 9.0 32.2°
